Regional Weather Roundup
Issued by NWS

Home | Current Version | Previous Version | Text Only | Print | Product List | Glossary On
Versions: 1 2 3 4 5 6 7 8 9 10 11 12 13 14 15 16 17 18 19 20 21 22 23 24 25 26 27 28 29 30 31 32 33 34 35 36 37 38 39 40 41 42 43 44 45 46 47 48 49 50
000
ASUS43 KMKX 292100
RWRWI

WISCONSIN REGIONAL WEATHER ROUNDUP
NATIONAL WEATHER SERVICE MILWAUKEE/SULLIVAN WI
400 PM CDT WED OCT 29 2014

NOTE: "FAIR" INDICATES FEW OR NO CLOUDS BELOW 12,000 FEET WITH NO
SIGNIFICANT WEATHER AND/OR OBSTRUCTIONS TO VISIBILITY.

WIZ001-002-006>008-014>016-023>028-292200-
NORTHWEST WISCONSIN

CITY           SKY/WX    TMP DP  RH WIND       PRES   REMARKS
SUPERIOR ARPT  CLOUDY    43  34  70 W6        30.08F
ASHLAND        CLOUDY    43  33  68 SW7       30.08S
HAYWARD        CLOUDY    41  32  70 VRB6      30.09S
SIREN          CLOUDY    42  33  71 W7        30.10S
CUMBERLAND     CLOUDY    41  32  70 NW6       30.09F
RICE LAKE      CLOUDY    42  33  69 W5        30.11S
CHETEK         CLOUDY    42  33  69 W3        30.10S
LADYSMITH      CLOUDY    42  34  72 NW8       30.10R
EAU CLAIRE     CLOUDY    45  32  60 W9        30.10S
MENOMONIE      CLOUDY    45  32  61 W7        30.11S
NEW RICHMOND   CLOUDY    42  31  65 W5        30.11S
OSCEOLA        CLOUDY    42  33  69 W8        30.14S
$$

WIZ003>005-009-010-017-018-292200-
NORTH CENTRAL WISCONSIN

CITY           SKY/WX    TMP DP  RH WIND       PRES   REMARKS
MANITOWISH WTR CLOUDY    39  34  83 W7        30.05R WCI  34
ARBOR VITAE    CLOUDY    42  35  76 NW6       30.05R
WOODRUFF       CLOUDY    42  35  76 NW6       30.05R
RHINELANDER    CLOUDY    40  32  73 W7        30.06R
EAGLE RIVER    CLOUDY    41  32  71 W10       30.03R
LAND O LAKES   CLOUDY    40  35  80 NW6       30.04R
PHILLIPS       CLOUDY    41  32  72 NW7       30.06R
TOMAHAWK       CLOUDY    42  32  69 CALM      30.06S
MEDFORD        CLOUDY    43  32  64 W10G16    30.06S
MERRILL        CLOUDY    43  33  69 NW3       30.05F
$$

WIZ029-030-035-036-043>047-292200-
CENTRAL WISCONSIN

CITY           SKY/WX    TMP DP  RH WIND       PRES   REMARKS
WAUSAU         PTSUNNY   43  33  68 W9        30.05S
MOSINEE        PTSUNNY   45  36  70 NW6       30.07S
MARSHFIELD     PTSUNNY   47  33  58 N10       30.07S
STEVENS POINT  CLOUDY    43  31  63 W10       30.07S
WAUPACA        CLOUDY    48  33  55 W9        30.08R
WAUTOMA        NOT AVBL
WISC RAPIDS    MOSUNNY   46  31  55 W8        30.09S
CAMP DOUGLAS   NOT AVBL
$$

WIZ011>013-019>022-031-037>040-048>050-292200-
NORTHEAST WISCONSIN

CITY           SKY/WX    TMP DP  RH WIND       PRES   REMARKS
ANTIGO         CLOUDY    44  33  66 W13       30.04S
SHAWANO        CLOUDY    49  33  55 W9        30.06R
OCONTO         CLOUDY    49  34  57 W6        30.03R
STURGEON BAY   CLOUDY    46  34  61 NW9       30.04R
GREEN BAY      CLOUDY    48  35  60 W10       30.05R
MANITOWOC      NOT AVBL
APPLETON       PTSUNNY   46  32  57 NW10      30.06R
CLINTONVILLE   CLOUDY    46  32  57 N6        30.06R
OSHKOSH        CLOUDY    46  34  62 W9        30.07R
$$

WIZ032>034-041-042-053>061-292200-
SOUTHWEST WISCONSIN

CITY           SKY/WX    TMP DP  RH WIND       PRES   REMARKS
LA CROSSE      SUNNY     50  32  50 N5        30.11F
SPARTA         MOSUNNY   46  31  54 W7        30.11S
VIROQUA        SUNNY     46  32  58 NW7       30.10S
BOSCOBEL       MOSUNNY   50  32  50 VRB5      30.12S
PRAIRIE DU CHI PTSUNNY   47  31  51 W7        30.12S
PLATTEVILLE    MOSUNNY   47  32  55 NW7       30.12S
$$

WIZ056-057-062-063-064-067-068-292200-
SOUTH CENTRAL WISCONSIN

CITY           SKY/WX    TMP DP  RH WIND       PRES   REMARKS
REEDSBURG      MOSUNNY   46  32  59 NW8       30.09S
BARABOO/DELLS  MOSUNNY   45  31  57 W8        30.09S
LONE ROCK      NOT AVBL
MINERAL POINT  MOSUNNY   50  32  50 W8        30.10R
MADISON        PTSUNNY   48  31  51 W9        30.10R
MIDDLETON      MOSUNNY   50  30  46 N7        30.09S
WATERTOWN      CLOUDY    46  32  58 NW9G17    30.08S
MONROE         MOSUNNY   46  32  57 W6        30.09S
JANESVILLE     MOSUNNY   48  30  49 NW13      30.09R
$$

WIZ051-052-058>065-066-070>072-292200-
SOUTHEAST WISCONSIN

CITY           SKY/WX    TMP DP  RH WIND       PRES   REMARKS
MILWAUKEE      CLOUDY    47  30  51 W14       30.08R
WAUKESHA       CLOUDY    45  30  57 NW12G17   30.09R
MILWAUKEE/TIMM CLOUDY    46  28  49 NW8G16    30.08R
RACINE         PTSUNNY   48  31  51 NW8       30.09R
BURLINGTON     PTSUNNY   46  30  53 NW9       30.09R
KENOSHA        PTSUNNY   48  31  51 NW7       30.08R
FOND DU LAC    CLOUDY    46  32  58 W9        30.08R
SHEBOYGAN      CLOUDY    47  34  60 NW9       30.06R
WEST BEND      CLOUDY    45  32  61 W13       30.07R
JUNEAU         CLOUDY    46  32  59 NW8       30.09R
$$

LSZ147-162-292200-
LAKE SUPERIOR

STATION/POSITION TIME  TEMP    WIND        PRES    WAVE
                       AIR SEA DIR/SP/G            HT/PER
                 (UTC) (F)     (DEG/KT/KT) (MB)    (FT/S)
W MID LAKE BUOY  1950   42 45  270/ 12/ 14 1017.9R   1/ 4
DEVILS ISLAND    2000   43     260/ 16/ 17 1018.7S
PORT WING        2000   42     260/  9/ 13 1019.0
SAXON HARBOR     2000   45     300/  8/ 11 1018.3S
$$

LMZ867-665-643>646-292200-
LAKE MICHIGAN

STATION/POSITION TIME  TEMP    WIND        PRES    WAVE
                       AIR SEA DIR/SP/G            HT/PER
                 (UTC) (F)     (DEG/KT/KT) (MB)    (FT/S)
CHAMBERS ISLAND  2000   47     310/ 11/ 15 1016.6R
N MID LAKE BUOY  1950   45 51  320/ 17/ 21 1016.0R   3/ 5
NORTHPORT PIER   2000   47     320/ 14/ 16 1016.3R
KEWAUNEE LAKESHO 2000   47     300/  6/ 11 1016.0R
SHEBOYGAN LAKESH 2000   47 51  290/ 10/ 13 1018.2R
PORT WASHINGTON  2000   48     280/  8/ 12 1018.3
ATWATER BUOY     2000   48     280/ 12/ 16 1019.1R
MILWAUKEE LAKESH 2000   47     310/  9/ 13   N/A
S MID LAKE BUOY  1950   46 53  290/ 14/ 16 1018.2R   4/ 6
KENOSHA   LAKESH 2000   48     310/ 10/ 15 1017.9S
$$

TC  - TEMPERATURE IN CELSIUS
VSB - VISIBILITY IN STATUTE MILES
WCI - WIND CHILL INDEX
HX  - HEAT INDEX




USA.gov is the U.S. government's official web portal to all federal, state and local government web resources and services.